Weather History for Guadalupe Pass, TX

Change the Weather History Date:

Sunday, October 7, 2012

  Actual Average Record
Temperature  
Mean Temperature 44 °F -  
Max Temperature 55 °F 72 °F 84 °F (2011)
Min Temperature 33 °F 52 °F 32 °F (2000)
Degree Days  
Heating Degree Days 22    
Moisture  
Dew Point 34 °F    
Average Humidity 81    
Maximum Humidity 100    
Minimum Humidity 55    
Precipitation  
Precipitation 0.00 in - - ()
Sea Level Pressure  
Sea Level Pressure 30.15 in    
Wind  
Wind Speed 34 mph (ENE)    
Max Wind Speed 44 mph    
Max Gust Speed -    
Visibility 7 miles    
Events Fog , Rain    
Averages and records for this station are not official NWS values.
T = Trace of Precipitation, MM = Missing Value Source: NWS Daily Summary

Daily Weather History Graph

Daily Weather History Graph

Search for Another Location

Airport:

Trip Planner

Search our weather history database for the weather conditions in past years. The results will help you decide how hot, cold, wet, or windy it might be!

Date:

Astronomy

Oct. 07, 2012 Rise Set
Actual Time 6:57 AM MDT 6:35 PM MDT
Civil Twilight 6:32 AM MDT 7:00 PM MDT
Nautical Twilight 6:04 AM MDT 7:28 PM MDT
Astronomical Twilight 5:36 AM MDT 7:56 PM MDT
Moon No Moon Rise 1:21 PM MDT (10/7)
Length of Visible Light 12h 27m
Length of Day
11h 38m
Waning Gibbous, 55% of the Moon is Illuminated
Oct 7
Waning Gibbous
Oct 8
Last Quarter
Oct 15
New
Oct 21
First Quarter
Oct 29
Full

Hourly Weather History & Observations

Time (MDT) Temp. Windchill Dew Point Humidity Pressure Visibility Wind Dir Wind Speed Gust Speed Precip Events Conditions
12:51 AM 39.9 °F 26.4 °F 33.1 °F 77% 30.12 in 10.0 mi ENE 43.7 mph - N/A   Overcast
1:51 AM 37.9 °F 24.6 °F 33.1 °F 83% 30.12 in 9.0 mi ENE 36.8 mph - N/A   Overcast
2:51 AM 37.0 °F 22.6 °F 33.1 °F 86% 30.12 in 8.0 mi ENE 41.4 mph - N/A   Overcast
3:16 AM 36.0 °F 21.1 °F 33.1 °F 89% 30.17 in 7.0 mi ENE 41.4 mph - N/A   Overcast
3:30 AM 36.0 °F 21.6 °F 33.1 °F 89% 30.18 in 8.0 mi NE 38.0 mph - N/A   Overcast
3:47 AM 37.4 °F 23.8 °F 33.8 °F 87% 30.17 in 7.0 mi ENE 36.8 mph - N/A   Overcast
3:51 AM 37.0 °F 23.1 °F 34.0 °F 89% 30.12 in 7.0 mi ENE 38.0 mph - N/A   Overcast
4:11 AM 36.0 °F 21.6 °F 34.0 °F 93% 30.16 in 5.0 mi ENE 38.0 mph - N/A   Overcast
4:27 AM 36.0 °F 22.0 °F 35.1 °F 97% 30.16 in 1.8 mi ENE 35.7 mph - 0.00 in Rain Light Rain
4:37 AM 36.0 °F 21.8 °F 35.1 °F 97% 30.17 in 0.5 mi ENE 36.8 mph - 0.00 in Fog , Rain Light Rain
4:51 AM 36.0 °F 22.2 °F 35.1 °F 97% 30.14 in 0.2 mi ENE 34.5 mph - 0.00 in Fog , Rain Light Rain
5:04 AM 36.0 °F 22.0 °F 35.1 °F 97% 30.18 in 0.2 mi NE 35.7 mph - 0.00 in Fog , Rain Light Rain
5:51 AM 35.1 °F 21.4 °F 35.1 °F 100% 30.16 in 0.2 mi ENE 32.2 mph - 0.00 in Fog , Rain Light Rain
6:21 AM 34.0 °F 19.7 °F 34.0 °F 100% 30.18 in 0.8 mi ENE 33.4 mph - 0.00 in Rain Light Rain
6:29 AM 34.0 °F 19.7 °F 34.0 °F 100% 30.18 in 1.0 mi ENE 33.4 mph - 0.00 in   Mist
6:46 AM 33.8 °F 19.2 °F 33.8 °F 100% 30.19 in 2.5 mi ENE 34.5 mph - 0.00 in   Overcast
6:51 AM 34.0 °F 19.5 °F 34.0 °F 100% 30.16 in 3.0 mi ENE 34.5 mph - 0.00 in   Overcast
7:27 AM 34.0 °F 19.7 °F 34.0 °F 100% 30.19 in 6.0 mi ENE 33.4 mph - N/A   Overcast
7:51 AM 35.1 °F 21.2 °F 32.0 °F 89% 30.16 in 7.0 mi ENE 33.4 mph - N/A   Overcast
8:51 AM 36.0 °F 23.0 °F 30.0 °F 79% 30.18 in 9.0 mi ENE 29.9 mph - N/A   Overcast
8:59 AM 37.0 °F 24.5 °F 30.0 °F 76% 30.22 in 9.0 mi ENE 29.9 mph - N/A   Overcast
9:51 AM 37.9 °F 26.3 °F 30.9 °F 76% 30.18 in 9.0 mi ENE 26.5 mph - N/A   Overcast
10:47 AM 39.2 °F 29.0 °F 32.0 °F 75% 30.23 in 9.0 mi ENE 21.9 mph - N/A   Overcast
10:51 AM 39.9 °F 30.0 °F 32.0 °F 73% 30.18 in 9.0 mi ENE 21.9 mph - N/A   Overcast
11:51 AM 44.1 °F 35.7 °F 32.0 °F 63% 30.16 in 9.0 mi East 20.7 mph - N/A   Overcast
12:51 PM 46.9 °F - 34.0 °F 61% 30.14 in 9.0 mi ENE 16.1 mph - N/A   Overcast
1:35 PM 50.0 °F - 35.1 °F 57% 30.17 in 10.0 mi ENE 13.8 mph - N/A   Scattered Clouds
1:51 PM 51.1 °F - 36.0 °F 56% 30.09 in 10.0 mi East 13.8 mph - N/A   Clear
2:51 PM 54.0 °F - 37.9 °F 55% 30.07 in 10.0 mi ENE 11.5 mph - N/A   Clear
3:51 PM 54.0 °F - 37.9 °F 55% 30.07 in 10.0 mi ENE 11.5 mph - N/A   Clear
4:51 PM 54.0 °F - 37.9 °F 55% 30.07 in 10.0 mi ENE 15.0 mph - N/A   Clear
5:51 PM 51.1 °F - 37.0 °F 59% 30.09 in 10.0 mi ENE 20.7 mph - N/A   Clear
6:51 PM 48.9 °F - 36.0 °F 61% 30.09 in 10.0 mi ENE 28.8 mph - N/A   Clear
7:51 PM 45.0 °F 34.3 °F 36.0 °F 71% 30.11 in 10.0 mi NE 36.8 mph - N/A   Clear
8:51 PM 42.1 °F 30.4 °F 36.0 °F 79% 30.14 in 10.0 mi NE 35.7 mph - N/A   Clear
9:51 PM 39.9 °F 27.5 °F 35.1 °F 83% 30.15 in 10.0 mi NE 35.7 mph - N/A   Clear
10:51 PM 39.0 °F 26.2 °F 35.1 °F 86% 30.13 in 9.0 mi NE 35.7 mph - N/A   Clear
11:43 PM 37.9 °F 24.7 °F 36.0 °F 93% 30.15 in 8.0 mi ENE 35.7 mph - N/A   Scattered Clouds
11:51 PM 37.9 °F 24.6 °F 36.0 °F 93% 30.11 in 8.0 mi ENE 36.8 mph - N/A   Mostly Cloudy